Time,TemperatureF,DewpointF,PressureIn,WindDirection,WindDirectionDegrees,WindSpeedMPH,WindSpeedGustMPH,Humidity,HourlyPrecipIn,Conditions,Clouds,dailyrainin,SoftwareType,DateUTC
2013-09-08 00:01:00,65.8,62.4,30.02,North,0,0.0,3.5,89,0.00,,,0.00,WUHU21636XXSP,2013-09-08 04:01:00,
2013-09-08 00:06:00,65.8,62.4,30.02,NW,315,0.4,1.1,89,0.00,,,0.00,WUHU21636XXSP,2013-09-08 04:06:00,
2013-09-08 00:11:00,65.8,62.4,30.02,West,270,0.0,2.6,89,0.00,,,0.00,WUHU21636XXSP,2013-09-08 04:11:00,
2013-09-08 00:16:00,65.8,62.4,30.02,North,0,0.0,2.6,89,0.00,,,0.00,WUHU21636XXSP,2013-09-08 04:16:00,
2013-09-08 00:21:00,65.8,62.4,30.02,SW,225,0.0,0.0,89,0.00,,,0.00,WUHU21636XXSP,2013-09-08 04:21:00,
2013-09-08 00:26:00,66.0,62.2,30.02,NW,315,4.9,4.9,88,0.00,,,0.00,WUHU21636XXSP,2013-09-08 04:26:00,
2013-09-08 00:31:00,65.8,62.1,30.02,NW,315,4.6,4.9,88,0.00,,,0.00,WUHU21636XXSP,2013-09-08 04:31:00,
2013-09-08 00:36:00,65.8,61.7,30.03,SW,225,1.1,4.9,87,0.00,,,0.00,WUHU21636XXSP,2013-09-08 04:36:00,
2013-09-08 00:41:00,65.8,61.7,30.03,NW,315,2.2,4.6,86,0.00,,,0.00,WUHU21636XXSP,2013-09-08 04:41:00,
2013-09-08 00:46:00,65.5,60.4,30.03,SE,135,2.9,7.6,84,0.00,,,0.00,WUHU21636XXSP,2013-09-08 04:46:00,
2013-09-08 00:51:00,65.5,60.4,30.03,West,270,1.7,7.6,82,0.00,,,0.00,WUHU21636XXSP,2013-09-08 04:51:00,
2013-09-08 00:56:00,65.1,59.0,30.03,West,270,0.0,4.0,81,0.00,,,0.00,WUHU21636XXSP,2013-09-08 04:56:00,
2013-09-08 01:01:00,64.9,58.8,30.03,West,270,0.0,4.0,81,0.00,,,0.00,WUHU21636XXSP,2013-09-08 05:01:00,
2013-09-08 01:06:00,64.6,58.5,30.04,WSW,247,0.0,0.0,82,0.00,,,0.00,WUHU21636XXSP,2013-09-08 05:06:00,
2013-09-08 01:11:00,64.2,58.1,30.04,WNW,292,5.8,5.8,81,0.00,,,0.00,WUHU21636XXSP,2013-09-08 05:11:00,
2013-09-08 01:16:00,64.0,57.9,30.04,SW,225,4.0,8.7,81,0.00,,,0.00,WUHU21636XXSP,2013-09-08 05:16:00,
2013-09-08 01:21:00,63.5,56.8,30.04,WNW,292,0.0,8.7,79,0.00,,,0.00,WUHU21636XXSP,2013-09-08 05:21:00,
2013-09-08 01:26:00,63.3,56.7,30.05,SE,135,0.0,1.7,79,0.00,,,0.00,WUHU21636XXSP,2013-09-08 05:26:00,
2013-09-08 01:31:00,63.1,56.5,30.05,West,270,0.0,0.0,79,0.00,,,0.00,WUHU21636XXSP,2013-09-08 05:31:00,
2013-09-08 01:37:00,62.8,56.1,30.05,SSE,157,3.8,3.8,79,0.00,,,0.00,WUHU21636XXSP,2013-09-08 05:37:00,
2013-09-08 01:42:00,62.4,55.8,30.05,NNW,337,1.5,3.8,79,0.00,,,0.00,WUHU21636XXSP,2013-09-08 05:42:00,
2013-09-08 01:47:00,62.2,55.6,30.05,SW,225,0.0,3.8,79,0.00,,,0.00,WUHU21636XXSP,2013-09-08 05:47:00,
2013-09-08 01:52:00,61.9,55.6,30.05,West,270,0.0,2.4,80,0.00,,,0.00,WUHU21636XXSP,2013-09-08 05:52:00,
2013-09-08 01:57:00,61.7,55.8,30.05,South,180,3.8,3.8,81,0.00,,,0.00,WUHU21636XXSP,2013-09-08 05:57:00,
2013-09-08 02:02:00,61.3,55.4,30.05,SW,225,2.4,3.8,81,0.00,,,0.00,WUHU21636XXSP,2013-09-08 06:02:00,
2013-09-08 02:07:00,61.2,55.2,30.06,North,0,0.8,3.8,81,0.00,,,0.00,WUHU21636XXSP,2013-09-08 06:07:00,
2013-09-08 02:12:00,61.0,55.0,30.06,WSW,247,0.0,3.5,81,0.00,,,0.00,WUHU21636XXSP,2013-09-08 06:12:00,
2013-09-08 02:17:00,60.6,54.7,30.06,NW,315,0.0,3.5,81,0.00,,,0.00,WUHU21636XXSP,2013-09-08 06:17:00,
2013-09-08 02:22:00,60.4,54.9,30.06,SSW,202,0.0,2.2,82,0.00,,,0.00,WUHU21636XXSP,2013-09-08 06:22:00,
2013-09-08 02:27:00,60.3,54.7,30.06,West,270,0.0,2.2,82,0.00,,,0.00,WUHU21636XXSP,2013-09-08 06:27:00,
2013-09-08 02:32:00,59.9,54.3,30.06,West,270,0.0,0.0,82,0.00,,,0.00,WUHU21636XXSP,2013-09-08 06:32:00,
2013-09-08 02:37:00,59.5,54.0,30.06,West,270,0.0,0.0,82,0.00,,,0.00,WUHU21636XXSP,2013-09-08 06:37:00,
2013-09-08 02:42:00,59.4,54.1,30.06,West,270,0.0,8.7,83,0.00,,,0.00,WUHU21636XXSP,2013-09-08 06:42:00,
2013-09-08 02:47:00,59.4,54.1,30.06,West,270,0.0,8.7,83,0.00,,,0.00,WUHU21636XXSP,2013-09-08 06:47:00,
2013-09-08 02:52:00,59.0,53.8,30.06,South,180,0.0,0.0,83,0.00,,,0.00,WUHU21636XXSP,2013-09-08 06:52:00,
2013-09-08 02:57:00,59.0,53.8,30.06,South,180,0.0,0.0,83,0.00,,,0.00,WUHU21636XXSP,2013-09-08 06:57:00,
2013-09-08 03:02:00,59.0,53.8,30.06,South,180,0.0,0.0,83,0.00,,,0.00,WUHU21636XXSP,2013-09-08 07:02:00,
2013-09-08 03:07:00,58.5,53.6,30.06,South,180,0.0,0.0,84,0.00,,,0.00,WUHU21636XXSP,2013-09-08 07:07:00,
2013-09-08 03:12:00,58.1,53.4,30.07,South,180,0.0,0.0,84,0.00,,,0.00,WUHU21636XXSP,2013-09-08 07:12:00,
2013-09-08 03:17:00,57.9,53.1,30.07,South,180,0.0,0.0,84,0.00,,,0.00,WUHU21636XXSP,2013-09-08 07:17:00,
2013-09-08 03:22:00,57.7,52.7,30.07,South,180,0.0,0.0,84,0.00,,,0.00,WUHU21636XXSP,2013-09-08 07:22:00,
2013-09-08 03:27:00,57.2,52.7,30.07,South,180,0.0,0.0,85,0.00,,,0.00,WUHU21636XXSP,2013-09-08 07:27:00,
2013-09-08 03:32:00,57.0,52.5,30.07,South,180,0.0,2.0,86,0.00,,,0.00,WUHU21636XXSP,2013-09-08 07:32:00,
2013-09-08 03:37:00,57.0,52.5,30.07,South,180,0.0,2.0,86,0.00,,,0.00,WUHU21636XXSP,2013-09-08 07:37:00,
2013-09-08 03:42:00,56.8,52.5,30.07,South,180,0.0,0.0,86,0.00,,,0.00,WUHU21636XXSP,2013-09-08 07:42:00,
2013-09-08 03:47:00,56.8,52.5,30.07,SSW,202,0.0,0.0,86,0.00,,,0.00,WUHU21636XXSP,2013-09-08 07:47:00,
2013-09-08 03:52:00,56.8,52.5,30.07,West,270,0.0,0.0,87,0.00,,,0.00,WUHU21636XXSP,2013-09-08 07:52:00,
2013-09-08 03:57:00,56.5,52.5,30.08,West,270,0.0,0.0,87,0.00,,,0.00,WUHU21636XXSP,2013-09-08 07:57:00,
2013-09-08 04:02:00,56.5,52.5,30.08,West,270,0.0,0.0,87,0.00,,,0.00,WUHU21636XXSP,2013-09-08 08:02:00,
2013-09-08 04:07:00,56.1,52.2,30.08,West,270,0.0,0.0,87,0.00,,,0.00,WUHU21636XXSP,2013-09-08 08:07:00,
2013-09-08 04:12:00,55.9,52.0,30.08,West,270,0.0,0.0,87,0.00,,,0.00,WUHU21636XXSP,2013-09-08 08:12:00,
2013-09-08 04:17:00,55.9,52.0,30.08,West,270,0.0,0.0,88,0.00,,,0.00,WUHU21636XXSP,2013-09-08 08:17:00,
2013-09-08 04:22:00,55.6,51.6,30.08,West,270,0.0,0.0,87,0.00,,,0.00,WUHU21636XXSP,2013-09-08 08:22:00,
2013-09-08 04:27:00,55.2,51.3,30.09,West,270,0.0,0.0,87,0.00,,,0.00,WUHU21636XXSP,2013-09-08 08:27:00,
2013-09-08 04:33:00,54.7,50.7,30.09,West,270,0.0,0.0,87,0.00,,,0.00,WUHU21636XXSP,2013-09-08 08:33:00,
2013-09-08 04:38:00,54.3,50.4,30.09,West,270,0.0,0.0,87,0.00,,,0.00,WUHU21636XXSP,2013-09-08 08:38:00,
2013-09-08 04:43:00,54.1,50.2,30.09,West,270,0.0,0.0,87,0.00,,,0.00,WUHU21636XXSP,2013-09-08 08:43:00,
2013-09-08 04:48:00,53.4,49.5,30.09,West,270,0.0,0.0,87,0.00,,,0.00,WUHU21636XXSP,2013-09-08 08:48:00,
2013-09-08 04:53:00,53.2,49.6,30.10,West,270,0.0,0.0,88,0.00,,,0.00,WUHU21636XXSP,2013-09-08 08:53:00,
2013-09-08 04:58:00,53.2,49.6,30.09,West,270,0.0,0.0,88,0.00,,,0.00,WUHU21636XXSP,2013-09-08 08:58:00,
2013-09-08 05:03:00,52.7,49.1,30.10,West,270,0.0,0.0,88,0.00,,,0.00,WUHU21636XXSP,2013-09-08 09:03:00,
2013-09-08 05:08:00,52.5,48.9,30.10,West,270,0.0,0.0,88,0.00,,,0.00,WUHU21636XXSP,2013-09-08 09:08:00,
2013-09-08 05:13:00,52.5,48.9,30.10,West,270,0.0,12.7,89,0.00,,,0.00,WUHU21636XXSP,2013-09-08 09:13:00,
2013-09-08 05:18:00,52.2,48.9,30.10,West,270,0.0,12.7,89,0.00,,,0.00,WUHU21636XXSP,2013-09-08 09:18:00,
2013-09-08 05:23:00,52.2,48.9,30.10,West,270,0.0,0.0,89,0.00,,,0.00,WUHU21636XXSP,2013-09-08 09:23:00,
2013-09-08 05:28:00,52.0,48.7,30.10,West,270,0.0,0.0,89,0.00,,,0.00,WUHU21636XXSP,2013-09-08 09:28:00,
2013-09-08 05:33:00,52.0,48.7,30.10,West,270,0.0,0.0,89,0.00,,,0.00,WUHU21636XXSP,2013-09-08 09:33:00,
2013-09-08 05:39:00,51.6,48.7,30.10,West,270,0.0,0.0,90,0.00,,,0.00,WUHU21636XXSP,2013-09-08 09:39:00,
2013-09-08 05:43:00,51.6,48.7,30.10,West,270,0.0,0.0,90,0.00,,,0.00,WUHU21636XXSP,2013-09-08 09:43:00,
2013-09-08 05:48:00,51.4,48.6,30.10,West,270,0.0,0.0,90,0.00,,,0.00,WUHU21636XXSP,2013-09-08 09:48:00,
2013-09-08 05:53:00,51.1,48.2,30.10,West,270,0.0,0.0,90,0.00,,,0.00,WUHU21636XXSP,2013-09-08 09:53:00,
2013-09-08 05:59:00,51.1,48.2,30.11,West,270,0.0,0.0,90,0.00,,,0.00,WUHU21636XXSP,2013-09-08 09:59:00,
2013-09-08 06:04:00,50.7,47.8,30.11,West,270,0.0,0.0,90,0.00,,,0.00,WUHU21636XXSP,2013-09-08 10:04:00,
2013-09-08 06:09:00,50.5,47.7,30.11,West,270,0.0,0.0,90,0.00,,,0.00,WUHU21636XXSP,2013-09-08 10:09:00,
2013-09-08 06:14:00,50.5,47.7,30.11,West,270,0.0,0.0,90,0.00,,,0.00,WUHU21636XXSP,2013-09-08 10:14:00,
2013-09-08 06:19:00,50.2,47.3,30.12,West,270,0.0,0.0,90,0.00,,,0.00,WUHU21636XXSP,2013-09-08 10:19:00,
2013-09-08 06:24:00,50.0,47.1,30.12,West,270,0.0,0.0,90,0.00,,,0.00,WUHU21636XXSP,2013-09-08 10:24:00,
2013-09-08 06:29:00,49.8,46.9,30.12,West,270,0.0,0.0,90,0.00,,,0.00,WUHU21636XXSP,2013-09-08 10:29:00,
2013-09-08 06:34:00,49.6,46.8,30.12,West,270,0.0,0.0,90,0.00,,,0.00,WUHU21636XXSP,2013-09-08 10:34:00,
2013-09-08 06:39:00,49.5,46.6,30.12,West,270,0.0,0.0,90,0.00,,,0.00,WUHU21636XXSP,2013-09-08 10:39:00,
2013-09-08 06:44:00,49.3,46.4,30.12,West,270,0.0,0.0,90,0.00,,,0.00,WUHU21636XXSP,2013-09-08 10:44:00,
2013-09-08 06:49:00,49.6,46.8,30.13,West,270,0.0,0.0,90,0.00,,,0.00,WUHU21636XXSP,2013-09-08 10:49:00,
2013-09-08 06:54:00,49.6,46.8,30.13,West,270,0.0,0.0,90,0.00,,,0.00,WUHU21636XXSP,2013-09-08 10:54:00,
2013-09-08 06:59:00,49.5,46.6,30.13,West,270,0.0,0.0,90,0.00,,,0.00,WUHU21636XXSP,2013-09-08 10:59:00,
2013-09-08 07:04:00,50.0,47.1,30.13,West,270,0.0,0.0,90,0.00,,,0.00,WUHU21636XXSP,2013-09-08 11:04:00,
2013-09-08 07:09:00,50.2,47.5,30.13,West,270,0.0,0.0,91,0.00,,,0.00,WUHU21636XXSP,2013-09-08 11:09:00,
2013-09-08 07:14:00,50.4,47.7,30.14,West,270,0.0,0.0,91,0.00,,,0.00,WUHU21636XXSP,2013-09-08 11:14:00,
2013-09-08 07:19:00,50.7,48.0,30.15,West,270,0.0,0.0,91,0.00,,,0.00,WUHU21636XXSP,2013-09-08 11:19:00,
2013-09-08 07:24:00,50.5,47.8,30.15,West,270,0.0,0.0,91,0.00,,,0.00,WUHU21636XXSP,2013-09-08 11:24:00,
2013-09-08 07:29:00,50.4,47.7,30.15,West,270,0.0,0.0,91,0.00,,,0.00,WUHU21636XXSP,2013-09-08 11:29:00,
2013-09-08 07:34:00,50.2,47.5,30.15,West,270,0.0,0.0,91,0.00,,,0.00,WUHU21636XXSP,2013-09-08 11:34:00,
2013-09-08 07:39:00,50.2,47.5,30.15,West,270,0.0,0.0,91,0.00,,,0.00,WUHU21636XXSP,2013-09-08 11:39:00,
2013-09-08 07:44:00,50.5,47.8,30.15,West,270,0.0,0.0,91,0.00,,,0.00,WUHU21636XXSP,2013-09-08 11:44:00,
2013-09-08 07:49:00,50.5,47.8,30.15,West,270,0.0,0.0,91,0.00,,,0.00,WUHU21636XXSP,2013-09-08 11:49:00,
2013-09-08 07:54:00,50.5,47.8,30.15,West,270,0.0,0.0,91,0.00,,,0.00,WUHU21636XXSP,2013-09-08 11:54:00,
2013-09-08 07:59:00,50.5,47.8,30.15,West,270,0.0,0.0,91,0.00,,,0.00,WUHU21636XXSP,2013-09-08 11:59:00,
2013-09-08 08:04:00,51.1,48.4,30.15,West,270,0.0,0.0,91,0.00,,,0.00,WUHU21636XXSP,2013-09-08 12:04:00,
2013-09-08 08:09:00,51.1,48.7,30.16,West,270,0.0,0.0,91,0.00,,,0.00,WUHU21636XXSP,2013-09-08 12:09:00,
2013-09-08 08:14:00,51.4,48.7,30.15,West,270,0.0,0.0,91,0.00,,,0.00,WUHU21636XXSP,2013-09-08 12:14:00,
2013-09-08 08:19:00,51.6,48.9,30.15,West,270,0.0,0.0,91,0.00,,,0.00,WUHU21636XXSP,2013-09-08 12:19:00,
2013-09-08 08:24:00,52.0,49.3,30.15,West,270,0.0,0.0,91,0.00,,,0.00,WUHU21636XXSP,2013-09-08 12:24:00,
2013-09-08 08:29:00,52.3,49.6,30.16,West,270,0.0,0.0,91,0.00,,,0.00,WUHU21636XXSP,2013-09-08 12:29:00,
2013-09-08 08:34:00,52.7,50.0,30.15,SE,135,1.3,1.3,91,0.00,,,0.00,WUHU21636XXSP,2013-09-08 12:34:00,
2013-09-08 08:39:00,53.4,51.1,30.15,SSE,157,0.0,1.3,91,0.00,,,0.00,WUHU21636XXSP,2013-09-08 12:39:00,
2013-09-08 08:44:00,54.5,51.8,30.15,SSE,157,0.0,0.0,91,0.00,,,0.00,WUHU21636XXSP,2013-09-08 12:44:00,
2013-09-08 08:49:00,55.0,52.2,30.15,SE,135,0.0,0.0,90,0.00,,,0.00,WUHU21636XXSP,2013-09-08 12:49:00,
2013-09-08 08:54:00,55.6,52.7,30.15,SE,135,0.8,2.9,90,0.00,,,0.00,WUHU21636XXSP,2013-09-08 12:54:00,
2013-09-08 08:59:00,56.3,53.6,30.15,SE,135,4.2,6.9,91,0.00,,,0.00,WUHU21636XXSP,2013-09-08 12:59:00,
2013-09-08 09:04:00,56.5,54.1,30.15,SSE,157,0.0,6.9,91,0.00,,,0.00,WUHU21636XXSP,2013-09-08 13:04:00,
2013-09-08 09:09:00,57.6,54.9,30.15,SE,135,1.5,2.9,91,0.00,,,0.00,WUHU21636XXSP,2013-09-08 13:09:00,
2013-09-08 09:14:00,58.1,55.2,30.15,SE,135,0.0,1.5,90,0.00,,,0.00,WUHU21636XXSP,2013-09-08 13:14:00,
2013-09-08 09:19:00,59.0,56.1,30.16,SE,135,0.0,1.5,90,0.00,,,0.00,WUHU21636XXSP,2013-09-08 13:19:00,
2013-09-08 09:24:00,59.7,55.4,30.16,East,90,0.0,0.6,86,0.00,,,0.00,WUHU21636XXSP,2013-09-08 13:24:00,
2013-09-08 09:29:00,60.1,55.8,30.16,ESE,112,0.0,1.1,86,0.00,,,0.00,WUHU21636XXSP,2013-09-08 13:29:00,
2013-09-08 09:34:00,60.3,55.0,30.16,SSE,157,0.4,2.0,83,0.00,,,0.00,WUHU21636XXSP,2013-09-08 13:34:00,
2013-09-08 09:39:00,60.6,55.4,30.16,SE,135,0.0,2.0,83,0.00,,,0.00,WUHU21636XXSP,2013-09-08 13:39:00,
2013-09-08 09:44:00,61.3,55.4,30.16,SSE,157,2.4,3.1,81,0.00,,,0.00,WUHU21636XXSP,2013-09-08 13:44:00,
2013-09-08 09:49:00,61.3,55.0,30.16,SSE,157,0.0,8.0,80,0.00,,,0.00,WUHU21636XXSP,2013-09-08 13:49:00,
2013-09-08 09:54:00,61.7,54.7,30.16,SE,135,2.6,9.3,78,0.00,,,0.00,WUHU21636XXSP,2013-09-08 13:54:00,
2013-09-08 09:59:00,61.7,55.0,30.16,SE,135,1.5,9.3,79,0.00,,,0.00,WUHU21636XXSP,2013-09-08 13:59:00,
2013-09-08 10:04:00,61.9,55.2,30.16,SE,135,3.5,4.4,79,0.00,,,0.00,WUHU21636XXSP,2013-09-08 14:04:00,
2013-09-08 10:09:00,62.4,55.0,30.16,SE,135,0.8,4.6,77,0.00,,,0.00,WUHU21636XXSP,2013-09-08 14:09:00,
2013-09-08 10:14:00,63.1,55.0,30.17,SSE,157,4.4,10.9,75,0.00,,,0.00,WUHU21636XXSP,2013-09-08 14:14:00,
2013-09-08 10:19:00,62.8,54.7,30.17,SSE,157,0.8,10.9,75,0.00,,,0.00,WUHU21636XXSP,2013-09-08 14:19:00,
2013-09-08 10:24:00,63.1,54.7,30.17,SE,135,0.0,10.7,73,0.00,,,0.00,WUHU21636XXSP,2013-09-08 14:24:00,
2013-09-08 10:29:00,63.7,55.6,30.17,ESE,112,0.0,3.1,75,0.00,,,0.00,WUHU21636XXSP,2013-09-08 14:29:00,
2013-09-08 10:34:00,64.0,55.9,30.17,SSW,202,1.5,6.7,75,0.00,,,0.00,WUHU21636XXSP,2013-09-08 14:34:00,
2013-09-08 10:39:00,64.8,56.5,30.17,SSW,202,0.0,6.7,75,0.00,,,0.00,WUHU21636XXSP,2013-09-08 14:39:00,
2013-09-08 10:44:00,64.8,55.0,30.17,SE,135,3.1,6.9,71,0.00,,,0.00,WUHU21636XXSP,2013-09-08 14:44:00,
2013-09-08 10:49:00,64.0,55.2,30.17,SE,135,3.1,6.9,73,0.00,,,0.00,WUHU21636XXSP,2013-09-08 14:49:00,
2013-09-08 10:54:00,63.5,54.7,30.17,SE,135,2.0,9.1,73,0.00,,,0.00,WUHU21636XXSP,2013-09-08 14:54:00,
2013-09-08 10:59:00,63.1,54.7,30.17,SE,135,0.4,9.1,74,0.00,,,0.00,WUHU21636XXSP,2013-09-08 14:59:00,
2013-09-08 11:04:00,62.8,54.0,30.17,SSE,157,3.5,8.7,73,0.00,,,0.00,WUHU21636XXSP,2013-09-08 15:04:00,
2013-09-08 11:09:00,63.1,54.7,30.17,SE,135,1.1,8.7,74,0.00,,,0.00,WUHU21636XXSP,2013-09-08 15:09:00,
2013-09-08 11:14:00,63.7,54.5,30.17,SE,135,0.0,4.4,72,0.00,,,0.00,WUHU21636XXSP,2013-09-08 15:14:00,
2013-09-08 11:19:00,63.3,54.5,30.17,SE,135,1.5,4.4,73,0.00,,,0.00,WUHU21636XXSP,2013-09-08 15:19:00,
2013-09-08 11:24:00,64.0,54.5,30.17,SE,135,5.1,6.2,71,0.00,,,0.00,WUHU21636XXSP,2013-09-08 15:24:00,
2013-09-08 11:29:00,64.9,54.9,30.17,SE,135,2.4,8.0,70,0.00,,,0.00,WUHU21636XXSP,2013-09-08 15:29:00,
2013-09-08 11:34:00,65.5,55.0,30.16,SSE,157,2.9,8.0,69,0.00,,,0.00,WUHU21636XXSP,2013-09-08 15:34:00,
2013-09-08 11:39:00,65.8,55.0,30.16,SSE,157,3.3,14.0,68,0.00,,,0.00,WUHU21636XXSP,2013-09-08 15:39:00,
2013-09-08 11:44:00,66.4,55.8,30.16,ESE,112,2.0,14.0,69,0.00,,,0.00,WUHU21636XXSP,2013-09-08 15:44:00,
2013-09-08 11:49:00,66.9,53.8,30.16,SE,135,3.1,3.3,63,0.00,,,0.00,WUHU21636XXSP,2013-09-08 15:49:00,
2013-09-08 11:54:00,66.4,53.8,30.16,South,180,2.0,31.3,64,0.00,,,0.00,WUHU21636XXSP,2013-09-08 15:54:00,
2013-09-08 11:59:00,66.6,54.3,30.16,SSE,157,1.5,31.3,65,0.00,,,0.00,WUHU21636XXSP,2013-09-08 15:59:00,
2013-09-08 12:04:00,67.6,56.7,30.16,ESE,112,0.0,2.0,68,0.00,,,0.00,WUHU21636XXSP,2013-09-08 16:04:00,
2013-09-08 12:09:00,68.2,55.0,30.17,ESE,112,0.0,2.6,63,0.00,,,0.00,WUHU21636XXSP,2013-09-08 16:09:00,
2013-09-08 12:14:00,68.5,54.9,30.16,SE,135,0.8,2.6,61,0.00,,,0.00,WUHU21636XXSP,2013-09-08 16:14:00,
2013-09-08 12:19:00,67.6,54.0,30.16,SE,135,0.0,4.2,62,0.00,,,0.00,WUHU21636XXSP,2013-09-08 16:19:00,
2013-09-08 12:24:00,68.2,54.1,30.16,SE,135,5.1,7.6,61,0.00,,,0.00,WUHU21636XXSP,2013-09-08 16:24:00,
2013-09-08 12:29:00,67.6,54.0,30.16,ESE,112,0.6,7.6,62,0.00,,,0.00,WUHU21636XXSP,2013-09-08 16:29:00,
2013-09-08 12:34:00,67.8,54.1,30.16,SE,135,0.0,5.5,64,0.00,,,0.00,WUHU21636XXSP,2013-09-08 16:34:00,
2013-09-08 12:39:00,68.4,55.6,30.15,SE,135,0.0,0.6,63,0.00,,,0.00,WUHU21636XXSP,2013-09-08 16:39:00,
2013-09-08 12:44:00,68.5,54.5,30.15,NW,315,0.0,3.5,62,0.00,,,0.00,WUHU21636XXSP,2013-09-08 16:44:00,
2013-09-08 12:49:00,68.7,54.3,30.16,ESE,112,2.0,3.5,59,0.00,,,0.00,WUHU21636XXSP,2013-09-08 16:49:00,
2013-09-08 12:54:00,68.9,54.0,30.16,SSE,157,4.2,4.2,59,0.00,,,0.00,WUHU21636XXSP,2013-09-08 16:54:00,
2013-09-08 12:59:00,69.6,55.6,30.16,SE,135,3.5,7.3,61,0.00,,,0.00,WUHU21636XXSP,2013-09-08 16:59:00,
2013-09-08 13:04:00,70.0,55.0,30.15,NW,315,0.0,7.3,55,0.00,,,0.00,WUHU21636XXSP,2013-09-08 17:04:00,
2013-09-08 13:09:00,69.1,55.0,30.15,SE,135,0.0,3.5,61,0.00,,,0.00,WUHU21636XXSP,2013-09-08 17:09:00,
2013-09-08 13:14:00,69.6,55.9,30.15,SE,135,0.0,3.1,62,0.00,,,0.00,WUHU21636XXSP,2013-09-08 17:14:00,
2013-09-08 13:19:00,70.3,54.9,30.15,SE,135,1.3,1.5,58,0.00,,,0.00,WUHU21636XXSP,2013-09-08 17:19:00,
2013-09-08 13:24:00,70.9,55.2,30.15,SE,135,0.0,4.4,58,0.00,,,0.00,WUHU21636XXSP,2013-09-08 17:24:00,
2013-09-08 13:29:00,71.1,53.4,30.15,SSE,157,2.6,8.0,56,0.00,,,0.00,WUHU21636XXSP,2013-09-08 17:29:00,
2013-09-08 13:34:00,71.2,55.0,30.14,SE,135,0.0,8.0,57,0.00,,,0.00,WUHU21636XXSP,2013-09-08 17:34:00,
2013-09-08 13:39:00,70.3,53.8,30.14,SSE,157,2.4,13.8,56,0.00,,,0.00,WUHU21636XXSP,2013-09-08 17:39:00,
2013-09-08 13:44:00,70.9,54.9,30.14,SSE,157,0.0,13.8,57,0.00,,,0.00,WUHU21636XXSP,2013-09-08 17:44:00,
2013-09-08 13:49:00,72.0,55.2,30.14,SSE,157,1.3,14.0,56,0.00,,,0.00,WUHU21636XXSP,2013-09-08 17:49:00,
2013-09-08 13:54:00,71.4,52.7,30.14,SE,135,0.0,14.0,52,0.00,,,0.00,WUHU21636XXSP,2013-09-08 17:54:00,
2013-09-08 13:59:00,71.8,55.0,30.14,West,270,0.0,1.3,56,0.00,,,0.00,WUHU21636XXSP,2013-09-08 17:59:00,
2013-09-08 14:04:00,72.0,54.3,30.14,SSE,157,0.0,1.7,54,0.00,,,0.00,WUHU21636XXSP,2013-09-08 18:04:00,
2013-09-08 14:09:00,72.1,54.9,30.13,North,0,0.0,1.7,55,0.00,,,0.00,WUHU21636XXSP,2013-09-08 18:09:00,
2013-09-08 14:14:00,72.7,54.1,30.13,WSW,247,1.1,1.1,52,0.00,,,0.00,WUHU21636XXSP,2013-09-08 18:14:00,
2013-09-08 14:19:00,73.4,54.0,30.13,WNW,292,0.0,1.1,51,0.00,,,0.00,WUHU21636XXSP,2013-09-08 18:19:00,
2013-09-08 14:24:00,73.6,53.8,30.13,SSE,157,4.2,7.6,50,0.00,,,0.00,WUHU21636XXSP,2013-09-08 18:24:00,
2013-09-08 14:29:00,73.0,53.2,30.13,SSE,157,0.0,7.6,50,0.00,,,0.00,WUHU21636XXSP,2013-09-08 18:29:00,
2013-09-08 14:34:00,73.9,55.0,30.13,SE,135,6.0,6.7,52,0.00,,,0.00,WUHU21636XXSP,2013-09-08 18:34:00,
2013-09-08 14:39:00,73.0,54.1,30.13,SE,135,0.2,6.2,52,0.00,,,0.00,WUHU21636XXSP,2013-09-08 18:39:00,
2013-09-08 14:44:00,73.2,54.9,30.13,SE,135,2.4,4.6,53,0.00,,,0.00,WUHU21636XXSP,2013-09-08 18:44:00,
2013-09-08 14:49:00,73.0,53.8,30.13,SSW,202,1.5,4.6,51,0.00,,,0.00,WUHU21636XXSP,2013-09-08 18:49:00,
2013-09-08 14:54:00,73.8,55.9,30.13,ENE,67,0.2,2.4,54,0.00,,,0.00,WUHU21636XXSP,2013-09-08 18:54:00,
2013-09-08 14:59:00,74.1,53.1,30.13,North,0,0.0,1.5,48,0.00,,,0.00,WUHU21636XXSP,2013-09-08 18:59:00,
2013-09-08 15:04:00,73.9,52.9,30.13,SE,135,0.8,1.5,49,0.00,,,0.00,WUHU21636XXSP,2013-09-08 19:04:00,
2013-09-08 15:09:00,73.9,55.0,30.13,ENE,67,2.2,2.2,52,0.00,,,0.00,WUHU21636XXSP,2013-09-08 19:09:00,
2013-09-08 15:14:00,73.8,53.2,30.13,SSE,157,0.0,2.2,49,0.00,,,0.00,WUHU21636XXSP,2013-09-08 19:14:00,
2013-09-08 15:19:00,73.9,55.6,30.13,NE,45,5.1,5.1,53,0.00,,,0.00,WUHU21636XXSP,2013-09-08 19:19:00,
2013-09-08 15:24:00,73.9,55.6,30.12,SE,135,0.0,5.1,53,0.00,,,0.00,WUHU21636XXSP,2013-09-08 19:24:00,
2013-09-08 15:29:00,74.1,55.2,30.13,SE,135,2.9,4.0,48,0.00,,,0.00,WUHU21636XXSP,2013-09-08 19:29:00,
2013-09-08 15:34:00,74.1,55.2,30.12,SSE,157,0.0,2.9,52,0.00,,,0.00,WUHU21636XXSP,2013-09-08 19:34:00,
2013-09-08 15:39:00,75.6,56.7,30.12,SSE,157,0.0,2.9,52,0.00,,,0.00,WUHU21636XXSP,2013-09-08 19:39:00,
2013-09-08 15:44:00,75.4,54.3,30.12,SE,135,1.1,7.1,48,0.00,,,0.00,WUHU21636XXSP,2013-09-08 19:44:00,
2013-09-08 15:49:00,75.4,54.3,30.12,SSE,157,2.6,7.1,48,0.00,,,0.00,WUHU21636XXSP,2013-09-08 19:49:00,
2013-09-08 15:54:00,75.0,54.5,30.12,ESE,112,3.3,3.3,49,0.00,,,0.00,WUHU21636XXSP,2013-09-08 19:54:00,
2013-09-08 15:59:00,74.8,54.3,30.12,ESE,112,2.2,29.5,49,0.00,,,0.00,WUHU21636XXSP,2013-09-08 19:59:00,
2013-09-08 16:04:00,75.0,54.0,30.12,South,180,0.8,29.5,48,0.00,,,0.00,WUHU21636XXSP,2013-09-08 20:04:00,
2013-09-08 16:09:00,75.7,55.2,30.12,SW,225,0.0,0.8,49,0.00,,,0.00,WUHU21636XXSP,2013-09-08 20:09:00,
2013-09-08 16:14:00,75.6,52.7,30.12,SE,135,2.0,3.1,46,0.00,,,0.00,WUHU21636XXSP,2013-09-08 20:14:00,
2013-09-08 16:19:00,73.8,53.2,30.11,SSE,157,0.0,4.2,49,0.00,,,0.00,WUHU21636XXSP,2013-09-08 20:19:00,
2013-09-08 16:24:00,73.0,53.8,30.10,SE,135,1.5,4.6,51,0.00,,,0.00,WUHU21636XXSP,2013-09-08 20:24:00,
2013-09-08 16:29:00,72.7,53.8,30.10,SE,135,0.0,4.6,51,0.00,,,0.00,WUHU21636XXSP,2013-09-08 20:29:00,
2013-09-08 16:34:00,73.4,54.5,30.10,SE,135,1.1,4.4,52,0.00,,,0.00,WUHU21636XXSP,2013-09-08 20:34:00,
2013-09-08 16:39:00,73.6,54.7,30.10,SE,135,3.8,29.5,50,0.00,,,0.00,WUHU21636XXSP,2013-09-08 20:39:00,
2013-09-08 16:44:00,74.1,55.2,30.10,SE,135,0.0,29.5,52,0.00,,,0.00,WUHU21636XXSP,2013-09-08 20:44:00,
2013-09-08 16:49:00,74.8,53.8,30.10,West,270,0.0,3.8,48,0.00,,,0.00,WUHU21636XXSP,2013-09-08 20:49:00,
2013-09-08 16:54:00,75.6,55.6,30.09,West,270,0.0,0.8,50,0.00,,,0.00,WUHU21636XXSP,2013-09-08 20:54:00,
2013-09-08 16:59:00,75.4,55.4,30.09,WSW,247,0.0,0.0,50,0.00,,,0.00,WUHU21636XXSP,2013-09-08 20:59:00,
2013-09-08 17:04:00,75.0,54.5,30.09,WSW,247,1.3,1.3,50,0.00,,,0.00,WUHU21636XXSP,2013-09-08 21:04:00,
2013-09-08 17:09:00,74.8,55.0,30.09,ESE,112,0.0,1.3,51,0.00,,,0.00,WUHU21636XXSP,2013-09-08 21:09:00,
2013-09-08 17:14:00,74.5,55.0,30.08,ESE,112,0.0,1.3,51,0.00,,,0.00,WUHU21636XXSP,2013-09-08 21:14:00,
2013-09-08 17:19:00,73.9,54.5,30.08,SE,135,0.0,0.0,50,0.00,,,0.00,WUHU21636XXSP,2013-09-08 21:19:00,
2013-09-08 17:24:00,73.8,54.9,30.08,SE,135,0.0,0.8,53,0.00,,,0.00,WUHU21636XXSP,2013-09-08 21:24:00,
2013-09-08 17:29:00,74.1,54.7,30.08,SE,135,0.0,0.8,50,0.00,,,0.00,WUHU21636XXSP,2013-09-08 21:29:00,
2013-09-08 17:34:00,74.3,54.5,30.08,ESE,112,0.0,0.0,50,0.00,,,0.00,WUHU21636XXSP,2013-09-08 21:34:00,
2013-09-08 17:39:00,74.5,54.7,30.08,ESE,112,0.0,0.0,51,0.00,,,0.00,WUHU21636XXSP,2013-09-08 21:39:00,
2013-09-08 17:44:00,74.1,54.3,30.08,SE,135,3.1,3.1,50,0.00,,,0.00,WUHU21636XXSP,2013-09-08 21:44:00,
2013-09-08 17:49:00,73.2,54.9,30.07,SE,135,0.0,3.1,53,0.00,,,0.00,WUHU21636XXSP,2013-09-08 21:49:00,
2013-09-08 17:54:00,72.7,54.0,30.07,SE,135,2.0,3.1,52,0.00,,,0.00,WUHU21636XXSP,2013-09-08 21:54:00,
2013-09-08 17:59:00,72.5,54.7,30.07,SE,135,0.0,2.0,54,0.00,,,0.00,WUHU21636XXSP,2013-09-08 21:59:00,
2013-09-08 18:04:00,72.1,54.9,30.07,SE,135,0.0,2.0,54,0.00,,,0.00,WUHU21636XXSP,2013-09-08 22:04:00,
2013-09-08 18:09:00,71.8,55.6,30.07,SE,135,0.0,0.6,57,0.00,,,0.00,WUHU21636XXSP,2013-09-08 22:09:00,
2013-09-08 18:14:00,71.4,55.2,30.06,SE,135,0.0,0.0,57,0.00,,,0.00,WUHU21636XXSP,2013-09-08 22:14:00,
2013-09-08 18:19:00,71.2,55.6,30.06,SE,135,0.0,0.0,58,0.00,,,0.00,WUHU21636XXSP,2013-09-08 22:19:00,
2013-09-08 18:24:00,71.2,55.6,30.06,SE,135,0.0,0.0,57,0.00,,,0.00,WUHU21636XXSP,2013-09-08 22:24:00,
2013-09-08 18:29:00,70.7,55.0,30.06,SE,135,0.0,0.0,58,0.00,,,0.00,WUHU21636XXSP,2013-09-08 22:29:00,
2013-09-08 18:34:00,70.3,55.0,30.05,SE,135,0.0,0.0,59,0.00,,,0.00,WUHU21636XXSP,2013-09-08 22:34:00,
2013-09-08 18:39:00,70.3,55.0,30.06,SE,135,0.0,0.0,59,0.00,,,0.00,WUHU21636XXSP,2013-09-08 22:39:00,
2013-09-08 18:44:00,70.3,55.0,30.06,SE,135,0.0,0.0,60,0.00,,,0.00,WUHU21636XXSP,2013-09-08 22:44:00,
2013-09-08 18:49:00,70.0,55.0,30.05,SE,135,0.0,0.0,59,0.00,,,0.00,WUHU21636XXSP,2013-09-08 22:49:00,
2013-09-08 18:54:00,70.0,55.0,30.05,SE,135,0.0,0.0,61,0.00,,,0.00,WUHU21636XXSP,2013-09-08 22:54:00,
2013-09-08 18:59:00,69.6,55.6,30.05,SE,135,0.0,0.0,61,0.00,,,0.00,WUHU21636XXSP,2013-09-08 22:59:00,
2013-09-08 19:04:00,69.1,55.2,30.05,SE,135,0.0,0.0,62,0.00,,,0.00,WUHU21636XXSP,2013-09-08 23:04:00,
2013-09-08 19:09:00,68.4,54.7,30.05,SE,135,0.0,0.0,62,0.00,,,0.00,WUHU21636XXSP,2013-09-08 23:09:00,
2013-09-08 19:14:00,67.6,54.5,30.05,SE,135,0.0,0.0,63,0.00,,,0.00,WUHU21636XXSP,2013-09-08 23:14:00,
2013-09-08 19:19:00,66.9,54.1,30.04,SE,135,0.0,0.0,64,0.00,,,0.00,WUHU21636XXSP,2013-09-08 23:19:00,
2013-09-08 19:24:00,66.4,54.9,30.05,SE,135,0.0,0.0,66,0.00,,,0.00,WUHU21636XXSP,2013-09-08 23:24:00,
2013-09-08 19:29:00,65.8,54.0,30.05,SE,135,0.0,0.0,66,0.00,,,0.00,WUHU21636XXSP,2013-09-08 23:29:00,
2013-09-08 19:34:00,65.1,54.1,30.04,SE,135,0.0,0.0,68,0.00,,,0.00,WUHU21636XXSP,2013-09-08 23:34:00,
2013-09-08 19:39:00,64.8,54.3,30.04,SE,135,0.0,0.0,69,0.00,,,0.00,WUHU21636XXSP,2013-09-08 23:39:00,
2013-09-08 19:44:00,64.2,53.8,30.04,SE,135,0.0,0.0,69,0.00,,,0.00,WUHU21636XXSP,2013-09-08 23:44:00,
2013-09-08 19:49:00,63.9,54.3,30.04,SSE,157,0.0,0.0,71,0.00,,,0.00,WUHU21636XXSP,2013-09-08 23:49:00,
2013-09-08 19:54:00,63.1,54.0,30.04,SE,135,0.0,0.0,72,0.00,,,0.00,WUHU21636XXSP,2013-09-08 23:54:00,
2013-09-08 19:59:00,62.8,54.0,30.04,SE,135,0.0,0.0,72,0.00,,,0.00,WUHU21636XXSP,2013-09-08 23:59:00,
2013-09-08 20:04:00,62.1,53.6,30.04,SE,135,0.0,0.0,74,0.00,,,0.00,WUHU21636XXSP,2013-09-09 00:04:00,
2013-09-08 20:09:00,61.5,53.4,30.04,ENE,67,0.0,0.0,75,0.00,,,0.00,WUHU21636XXSP,2013-09-09 00:09:00,
2013-09-08 20:14:00,61.3,53.6,30.04,East,90,0.0,0.0,76,0.00,,,0.00,WUHU21636XXSP,2013-09-09 00:14:00,
2013-09-08 20:19:00,60.6,53.4,30.04,SE,135,3.8,29.5,77,0.00,,,0.00,WUHU21636XXSP,2013-09-09 00:19:00,
2013-09-08 20:24:00,60.6,53.4,30.04,East,90,0.0,29.5,77,0.00,,,0.00,WUHU21636XXSP,2013-09-09 00:24:00,
2013-09-08 20:29:00,60.4,53.6,30.05,ESE,112,0.0,3.8,78,0.00,,,0.00,WUHU21636XXSP,2013-09-09 00:29:00,
2013-09-08 20:34:00,60.3,53.4,30.05,ESE,112,0.0,0.0,78,0.00,,,0.00,WUHU21636XXSP,2013-09-09 00:34:00,
2013-09-08 20:39:00,60.1,53.2,30.05,SE,135,0.0,0.0,78,0.00,,,0.00,WUHU21636XXSP,2013-09-09 00:39:00,
2013-09-08 20:44:00,59.7,53.2,30.05,SE,135,0.0,0.0,79,0.00,,,0.00,WUHU21636XXSP,2013-09-09 00:44:00,
2013-09-08 20:49:00,59.7,53.2,30.05,SE,135,0.0,0.0,78,0.00,,,0.00,WUHU21636XXSP,2013-09-09 00:49:00,
2013-09-08 20:54:00,59.2,52.7,30.06,SE,135,0.0,0.0,79,0.00,,,0.00,WUHU21636XXSP,2013-09-09 00:54:00,
2013-09-08 20:59:00,58.6,52.2,30.06,SE,135,0.0,0.0,79,0.00,,,0.00,WUHU21636XXSP,2013-09-09 00:59:00,
2013-09-08 21:04:00,58.1,52.0,30.06,SE,135,0.0,0.0,80,0.00,,,0.00,WUHU21636XXSP,2013-09-09 01:04:00,
2013-09-08 21:09:00,57.7,51.8,30.06,SE,135,0.0,0.0,81,0.00,,,0.00,WUHU21636XXSP,2013-09-09 01:09:00,
2013-09-08 21:14:00,57.6,51.4,30.06,SE,135,0.0,0.0,80,0.00,,,0.00,WUHU21636XXSP,2013-09-09 01:14:00,
2013-09-08 21:19:00,57.2,51.3,30.06,SE,135,0.0,0.0,81,0.00,,,0.00,WUHU21636XXSP,2013-09-09 01:19:00,
2013-09-08 21:24:00,56.7,51.1,30.06,SE,135,0.0,0.0,82,0.00,,,0.00,WUHU21636XXSP,2013-09-09 01:24:00,
2013-09-08 21:30:00,56.8,52.0,30.05,ESE,112,4.9,4.9,84,0.00,,,0.00,WUHU21636XXSP,2013-09-09 01:30:00,
2013-09-08 21:35:00,57.2,52.3,30.05,SE,135,4.0,4.9,84,0.00,,,0.00,WUHU21636XXSP,2013-09-09 01:35:00,
2013-09-08 21:40:00,57.9,52.7,30.05,SE,135,2.6,4.9,83,0.00,,,0.00,WUHU21636XXSP,2013-09-09 01:40:00,
2013-09-08 21:45:00,58.3,52.7,30.05,ESE,112,0.0,2.6,82,0.00,,,0.00,WUHU21636XXSP,2013-09-09 01:45:00,
2013-09-08 21:50:00,58.3,52.7,30.05,SE,135,1.3,3.3,81,0.00,,,0.00,WUHU21636XXSP,2013-09-09 01:50:00,
2013-09-08 21:55:00,58.6,52.7,30.05,SSE,157,0.8,3.3,81,0.00,,,0.00,WUHU21636XXSP,2013-09-09 01:55:00,
2013-09-08 22:00:00,58.5,52.5,30.05,SE,135,1.1,3.3,81,0.00,,,0.00,WUHU21636XXSP,2013-09-09 02:00:00,
2013-09-08 22:05:00,58.3,52.3,30.05,SE,135,0.0,2.2,81,0.00,,,0.00,WUHU21636XXSP,2013-09-09 02:05:00,
2013-09-08 22:10:00,58.1,52.2,30.05,SE,135,0.0,2.6,81,0.00,,,0.00,WUHU21636XXSP,2013-09-09 02:10:00,
2013-09-08 22:15:00,57.7,51.8,30.05,SE,135,0.0,2.6,81,0.00,,,0.00,WUHU21636XXSP,2013-09-09 02:15:00,
2013-09-08 22:20:00,57.4,51.8,30.05,SE,135,0.0,0.0,82,0.00,,,0.00,WUHU21636XXSP,2013-09-09 02:20:00,
2013-09-08 22:25:00,56.8,51.3,30.05,SE,135,0.0,0.0,82,0.00,,,0.00,WUHU21636XXSP,2013-09-09 02:25:00,
2013-09-08 22:30:00,56.5,50.9,30.05,SE,135,0.0,0.0,82,0.00,,,0.00,WUHU21636XXSP,2013-09-09 02:30:00,
2013-09-08 22:35:00,56.3,51.1,30.05,SE,135,0.0,0.0,83,0.00,,,0.00,WUHU21636XXSP,2013-09-09 02:35:00,
2013-09-08 22:40:00,56.1,50.9,30.05,SE,135,1.7,1.7,83,0.00,,,0.00,WUHU21636XXSP,2013-09-09 02:40:00,
2013-09-08 22:45:00,56.1,50.9,30.05,SE,135,1.3,1.7,83,0.00,,,0.00,WUHU21636XXSP,2013-09-09 02:45:00,
2013-09-08 22:50:00,56.1,50.9,30.05,SE,135,0.0,1.7,83,0.00,,,0.00,WUHU21636XXSP,2013-09-09 02:50:00,
2013-09-08 22:55:00,56.1,50.9,30.05,SE,135,1.1,1.3,83,0.00,,,0.00,WUHU21636XXSP,2013-09-09 02:55:00,
2013-09-08 23:00:00,56.1,50.9,30.05,SE,135,0.0,1.1,83,0.00,,,0.00,WUHU21636XXSP,2013-09-09 03:00:00,
2013-09-08 23:05:00,56.1,50.9,30.06,SE,135,0.0,1.1,83,0.00,,,0.00,WUHU21636XXSP,2013-09-09 03:05:00,
2013-09-08 23:10:00,55.9,50.7,30.06,SE,135,0.0,0.0,83,0.00,,,0.00,WUHU21636XXSP,2013-09-09 03:10:00,
2013-09-08 23:15:00,55.6,50.4,30.06,SE,135,0.0,0.0,83,0.00,,,0.00,WUHU21636XXSP,2013-09-09 03:15:00,
2013-09-08 23:20:00,55.2,50.0,30.06,SE,135,0.0,0.0,83,0.00,,,0.00,WUHU21636XXSP,2013-09-09 03:20:00,
2013-09-08 23:25:00,55.0,50.2,30.06,SE,135,0.0,0.0,84,0.00,,,0.00,WUHU21636XXSP,2013-09-09 03:25:00,
2013-09-08 23:30:00,54.3,49.5,30.06,SE,135,0.0,0.0,84,0.00,,,0.00,WUHU21636XXSP,2013-09-09 03:30:00,
2013-09-08 23:35:00,54.1,49.3,30.06,SE,135,0.0,0.0,84,0.00,,,0.00,WUHU21636XXSP,2013-09-09 03:35:00,
2013-09-08 23:40:00,54.0,49.5,30.06,SE,135,0.0,0.0,85,0.00,,,0.00,WUHU21636XXSP,2013-09-09 03:40:00,
2013-09-08 23:45:00,54.0,49.5,30.06,SE,135,0.4,0.4,85,0.00,,,0.00,WUHU21636XXSP,2013-09-09 03:45:00,
2013-09-08 23:50:00,54.3,50.4,30.06,SE,135,0.0,0.4,87,0.00,,,0.00,WUHU21636XXSP,2013-09-09 03:50:00,
2013-09-08 23:55:00,54.7,50.7,30.06,SE,135,1.3,6.9,87,0.00,,,0.00,WUHU21636XXSP,2013-09-09 03:55:00,